Weather History for Chrysopouli, Greece

Change the Weather History Date:

Sunday, December 30, 2012

  Actual Average Record
Temperature  
Mean Temperature 46 °F -  
Max Temperature 50 °F 48 °F 60 °F (2005)
Min Temperature 39 °F 36 °F 24 °F (2008)
Degree Days  
Heating Degree Days 19    
Moisture  
Dew Point 32 °F    
Average Humidity 59    
Maximum Humidity 66    
Minimum Humidity 53    
Precipitation  
Precipitation 0.00 in - - ()
Sea Level Pressure  
Sea Level Pressure 30.27 in    
Wind  
Wind Speed 14 mph ()    
Max Wind Speed 21 mph    
Max Gust Speed -    
Visibility 6.2 miles    
Events      
Averages and records for this station are not official NWS values.
T = Trace of Precipitation, MM = Missing Value Source: Averaged Metar Reports

Daily Weather History Graph

Daily Weather History Graph

Search for Another Location

Airport:

Trip Planner

Search our weather history database for the weather conditions in past years. The results will help you decide how hot, cold, wet, or windy it might be!

Date:

Astronomy

Dec. 30, 2012 Rise Set
Actual Time 7:45 AM EET 5:02 PM EET
Civil Twilight 7:14 AM EET 5:33 PM EET
Nautical Twilight 6:40 AM EET 6:08 PM EET
Astronomical Twilight 6:07 AM EET 6:41 PM EET
Moon 7:16 PM EET (12/30) 8:43 AM EET (12/30)
Length of Visible Light 10h 18m
Length of Day
9h 16m
Waning Gibbous, 96% of the Moon is Illuminated
Dec 30
Waning Gibbous
Jan 5
Last Quarter
Jan 11
New
Jan 19
First Quarter
Jan 27
Full

Hourly Weather History & Observations

Time (EET) Temp. Windchill Dew Point Humidity Pressure Visibility Wind Dir Wind Speed Gust Speed Precip Events Conditions
7:50 AM 44.6 °F 36.4 °F 30.2 °F 57% 30.27 in 6.2 mi ENE 20.7 mph - N/A   Mostly Cloudy
8:20 AM 44.6 °F 36.6 °F 30.2 °F 57% 30.27 in 6.2 mi ENE 19.6 mph - N/A   Mostly Cloudy
8:50 AM 44.6 °F 37.4 °F 30.2 °F 57% 30.27 in 6.2 mi ENE 16.1 mph - N/A   Mostly Cloudy
9:20 AM 44.6 °F 37.8 °F 30.2 °F 57% 30.27 in 6.2 mi East 15.0 mph - N/A   Mostly Cloudy
9:50 AM 44.6 °F 37.8 °F 30.2 °F 57% 30.27 in 6.2 mi East 15.0 mph - N/A   Mostly Cloudy
10:20 AM 44.6 °F 37.2 °F 30.2 °F 57% 30.27 in 6.2 mi East 17.3 mph - N/A   Mostly Cloudy
10:50 AM 44.6 °F 36.6 °F 30.2 °F 57% 30.30 in 6.2 mi East 19.6 mph - N/A   Mostly Cloudy
11:20 AM 44.6 °F 36.4 °F 30.2 °F 57% 30.30 in 6.2 mi ENE 20.7 mph - N/A   Mostly Cloudy
11:50 AM 44.6 °F 36.9 °F 30.2 °F 57% 30.30 in 6.2 mi ENE 18.4 mph - N/A   Mostly Cloudy
12:20 PM 46.4 °F 39.0 °F 30.2 °F 53% 30.30 in 6.2 mi ENE 19.6 mph - N/A   Mostly Cloudy
12:50 PM 46.4 °F 39.5 °F 30.2 °F 53% 30.27 in 6.2 mi ENE 17.3 mph - N/A   Mostly Cloudy
1:20 PM 46.4 °F 40.7 °F 30.2 °F 53% 30.27 in 6.2 mi ENE 12.7 mph - N/A   Mostly Cloudy
1:50 PM 48.2 °F - 33.8 °F 58% 30.27 in 6.2 mi ENE 11.5 mph - N/A   Mostly Cloudy
2:20 PM 48.2 °F - 33.8 °F 58% 30.24 in 6.2 mi East 10.4 mph - N/A   Mostly Cloudy
2:50 PM 50.0 °F - 33.8 °F 54% 30.24 in 6.2 mi ENE 15.0 mph - N/A   Mostly Cloudy
3:20 PM 48.2 °F - 33.8 °F 58% 30.24 in 6.2 mi ENE 19.6 mph - N/A   Mostly Cloudy
3:50 PM 48.2 °F - 33.8 °F 58% 30.24 in 6.2 mi East 16.1 mph - N/A   Scattered Clouds
4:20 PM 46.4 °F 39.8 °F 33.8 °F 62% 30.24 in 6.2 mi East 16.1 mph - N/A   Scattered Clouds
4:50 PM 46.4 °F 41.9 °F 33.8 °F 62% 30.24 in 6.2 mi ENE 9.2 mph - N/A   Scattered Clouds
5:20 PM 46.4 °F 41.9 °F 33.8 °F 62% 30.24 in 6.2 mi ENE 9.2 mph - N/A   Scattered Clouds
5:50 PM 44.6 °F 40.2 °F 32.0 °F 61% 30.24 in 6.2 mi ENE 8.1 mph - N/A   Scattered Clouds
6:20 PM 44.6 °F 39.2 °F 32.0 °F 61% 30.27 in 6.2 mi NE 10.4 mph - N/A   Scattered Clouds
6:50 PM 42.8 °F 37.5 °F 32.0 °F 66% 30.27 in 6.2 mi ENE 9.2 mph - N/A   Scattered Clouds
7:20 PM 42.8 °F 39.3 °F 32.0 °F 66% 30.27 in 6.2 mi NE 5.8 mph - N/A   Scattered Clouds
7:50 PM 39.2 °F 35.0 °F 28.4 °F 65% 30.27 in 6.2 mi NNE 5.8 mph - N/A   Partly Cloudy